BAW235 EDDL-EGKK

Flight info

Callsign BAW235
Flight time 1h 3m
Altitude 32000
Route MODRU7Z/05R MODRU Z717 MAS UM617 SOGRI DCT DENUT L610 TEBRA
Aircraft B772/H-SDE2E3FGHIJ5LORVWXY/LB1D1

Departure

Time 2026-05-06 09:35
Airport Düsseldorf Airport (EDDL)

Arrival

Time 2026-05-06 10:39
Airport London Gatwick Airport (EGKK)
Time Latitude Longitude Altitude Speed Heading
2026-05-06 09:09 51.27605 6.75747 133 ft 0 kts 246°
2026-05-06 09:28 51.27606 6.75752 134 ft 2 kts 246°
2026-05-06 09:28 51.27610 6.75777 131 ft 2 kts 268°
2026-05-06 09:28 51.27608 6.75803 134 ft 2 kts 289°
2026-05-06 09:28 51.27601 6.75826 134 ft 2 kts 307°
2026-05-06 09:29 51.27590 6.75846 132 ft 2 kts 319°
2026-05-06 09:29 51.27577 6.75862 130 ft 2 kts 327°
2026-05-06 09:29 51.27566 6.75873 134 ft 0 kts 332°
2026-05-06 09:31 51.27578 6.75863 130 ft 9 kts 332°
2026-05-06 09:32 51.27677 6.75813 124 ft 19 kts 355°
2026-05-06 09:32 51.27827 6.75816 131 ft 24 kts
2026-05-06 09:32 51.27977 6.75805 124 ft 11 kts 332°
2026-05-06 09:32 51.27994 6.75713 127 ft 9 kts 252°
2026-05-06 09:33 51.27946 6.75630 124 ft 13 kts 224°
2026-05-06 09:33 51.27877 6.75489 122 ft 18 kts 232°
2026-05-06 09:33 51.27854 6.75355 123 ft 13 kts 300°
2026-05-06 09:33 51.27877 6.75324 122 ft 0 kts 329°
2026-05-06 09:34 51.27951 6.75260 119 ft 16 kts 345°
2026-05-06 09:34 51.28022 6.75322 117 ft 11 kts 58°
2026-05-06 09:34 51.28078 6.75446 120 ft 24 kts 53°
2026-05-06 09:35 51.28360 6.76026 123 ft 122 kts 54°
2026-05-06 09:35 51.29074 6.77487 462 ft 196 kts 50°
2026-05-06 09:35 51.30001 6.79355 1466 ft 236 kts 50°
2026-05-06 09:35 51.31051 6.81546 2190 ft 258 kts 52°
2026-05-06 09:36 51.32141 6.83902 3199 ft 267 kts 52°
2026-05-06 09:36 51.33245 6.86243 4267 ft 264 kts 53°
2026-05-06 09:36 51.34321 6.88645 4894 ft 267 kts 54°
2026-05-06 09:36 51.35680 6.90665 4982 ft 274 kts 26°
2026-05-06 09:37 51.37517 6.91353 5000 ft 269 kts
2026-05-06 09:37 51.39384 6.91679 5002 ft 270 kts
2026-05-06 09:37 51.41240 6.92120 4992 ft 269 kts
2026-05-06 09:37 51.43083 6.92597 4997 ft 268 kts
2026-05-06 09:38 51.44916 6.93081 4997 ft 267 kts
2026-05-06 09:38 51.46156 6.93411 4997 ft 267 kts
2026-05-06 09:38 51.47981 6.93615 4990 ft 265 kts 351°
2026-05-06 09:38 51.49670 6.92421 5008 ft 270 kts 319°
2026-05-06 09:39 51.50773 6.90022 5011 ft 267 kts 294°
2026-05-06 09:39 51.51443 6.87238 5018 ft 270 kts 290°
2026-05-06 09:39 51.52111 6.84412 5111 ft 273 kts 291°
2026-05-06 09:39 51.52794 6.81526 5381 ft 279 kts 290°
2026-05-06 09:40 51.53492 6.78584 5656 ft 283 kts 290°
2026-05-06 09:40 51.54194 6.75628 5924 ft 283 kts 290°
2026-05-06 09:40 51.55600 6.69695 6465 ft 283 kts 289°
2026-05-06 09:41 51.55835 6.66582 6663 ft 286 kts 261°
2026-05-06 09:41 51.55152 6.63600 6922 ft 286 kts 242°
2026-05-06 09:41 51.54203 6.60738 7188 ft 293 kts 242°
2026-05-06 09:41 51.53258 6.57825 7443 ft 295 kts 243°
2026-05-06 09:42 51.52309 6.54896 7679 ft 295 kts 243°
2026-05-06 09:42 51.51363 6.51978 7936 ft 294 kts 242°
2026-05-06 09:42 51.50422 6.49071 8196 ft 293 kts 242°
2026-05-06 09:42 51.49486 6.46178 8437 ft 292 kts 242°
2026-05-06 09:43 51.48550 6.43289 8696 ft 291 kts 242°
2026-05-06 09:43 51.47618 6.40415 8966 ft 290 kts 242°
2026-05-06 09:43 51.46684 6.37542 9215 ft 290 kts 242°
2026-05-06 09:43 51.45485 6.34982 9447 ft 292 kts 219°
2026-05-06 09:44 51.43680 6.33465 9741 ft 295 kts 200°
2026-05-06 09:44 51.41731 6.32371 10008 ft 299 kts 200°
2026-05-06 09:44 51.39771 6.31232 10253 ft 299 kts 201°
2026-05-06 09:44 51.37838 6.30099 10482 ft 294 kts 201°
2026-05-06 09:45 51.35919 6.28970 10718 ft 294 kts 201°
2026-05-06 09:45 51.34004 6.27843 10966 ft 296 kts 201°
2026-05-06 09:45 51.32059 6.26699 11234 ft 298 kts 201°
2026-05-06 09:45 51.30101 6.25551 11490 ft 300 kts 201°
2026-05-06 09:46 51.28135 6.24400 11742 ft 302 kts 201°
2026-05-06 09:46 51.26162 6.23245 12003 ft 303 kts 201°
2026-05-06 09:46 51.24163 6.22075 12273 ft 317 kts 201°
2026-05-06 09:46 51.22016 6.20817 12639 ft 336 kts 201°
2026-05-06 09:47 51.19788 6.19516 13001 ft 342 kts 201°
2026-05-06 09:47 51.17553 6.18213 13352 ft 343 kts 200°
2026-05-06 09:47 51.15315 6.16908 13687 ft 344 kts 201°
2026-05-06 09:47 51.13051 6.15591 14001 ft 347 kts 201°
2026-05-06 09:48 51.10774 6.14267 14331 ft 350 kts 201°
2026-05-06 09:48 51.08480 6.12933 14673 ft 353 kts 201°
2026-05-06 09:48 51.06117 6.11561 15177 ft 367 kts 201°
2026-05-06 09:48 51.03707 6.10125 15681 ft 370 kts 205°
2026-05-06 09:49 51.01560 6.07845 16171 ft 378 kts 225°
2026-05-06 09:49 51.00005 6.04502 16707 ft 375 kts 241°
2026-05-06 09:49 50.98780 6.00804 17249 ft 382 kts 242°
2026-05-06 09:49 50.97548 5.97047 17803 ft 386 kts 245°
2026-05-06 09:50 50.96572 5.93067 18322 ft 391 kts 253°
2026-05-06 09:50 50.95858 5.88895 18801 ft 392 kts 255°
2026-05-06 09:50 50.95148 5.84712 19289 ft 394 kts 254°
2026-05-06 09:50 50.94414 5.80516 19775 ft 397 kts 254°
2026-05-06 09:51 50.93665 5.76294 20270 ft 399 kts 254°
2026-05-06 09:51 50.92905 5.72047 20780 ft 402 kts 254°
2026-05-06 09:51 50.92137 5.67768 21304 ft 405 kts 254°
2026-05-06 09:51 50.91361 5.63452 21831 ft 411 kts 254°
2026-05-06 09:52 50.90569 5.59054 22374 ft 419 kts 254°
2026-05-06 09:52 50.89763 5.54585 22937 ft 425 kts 254°
2026-05-06 09:52 50.88946 5.50064 23488 ft 428 kts 254°
2026-05-06 09:52 50.88123 5.45520 23968 ft 432 kts 254°
2026-05-06 09:53 50.87290 5.40938 24450 ft 435 kts 253°
2026-05-06 09:53 50.86449 5.36320 24929 ft 437 kts 253°
2026-05-06 09:53 50.85602 5.31676 25528 ft 439 kts 253°
2026-05-06 09:53 50.84750 5.27024 26160 ft 441 kts 253°
2026-05-06 09:54 50.83898 5.22373 26808 ft 443 kts 252°
2026-05-06 09:54 50.83037 5.17685 27451 ft 445 kts 253°
2026-05-06 09:54 50.82168 5.12976 28140 ft 446 kts 253°
2026-05-06 09:54 50.81462 5.08200 28783 ft 445 kts 263°
2026-05-06 09:55 50.81517 5.03327 29365 ft 450 kts 278°
2026-05-06 09:55 50.82339 4.98535 29911 ft 456 kts 292°
2026-05-06 09:55 50.83743 4.94037 30281 ft 459 kts 297°
2026-05-06 09:55 50.85228 4.89534 30655 ft 465 kts 297°
2026-05-06 09:56 50.86729 4.84962 31063 ft 470 kts 297°
2026-05-06 09:56 50.88226 4.80346 31361 ft 475 kts 297°
2026-05-06 09:56 50.89729 4.75658 31496 ft 479 kts 296°
2026-05-06 09:56 50.91227 4.70938 31616 ft 480 kts 296°
2026-05-06 09:57 50.92714 4.66217 31751 ft 478 kts 296°
2026-05-06 09:57 50.94196 4.61492 31814 ft 478 kts 296°
2026-05-06 09:57 50.97147 4.52049 31874 ft 479 kts 296°
2026-05-06 09:58 50.98613 4.47345 31866 ft 468 kts 296°
2026-05-06 09:58 51.00030 4.42793 31863 ft 453 kts 296°
2026-05-06 09:58 51.02786 4.33914 31873 ft 447 kts 296°
2026-05-06 09:59 51.05541 4.25005 31875 ft 447 kts 296°
2026-05-06 09:59 51.08261 4.16183 31881 ft 447 kts 296°
2026-05-06 10:00 51.10993 4.07286 31874 ft 447 kts 296°
2026-05-06 10:00 51.13721 3.98369 31873 ft 448 kts 296°
2026-05-06 10:01 51.16441 3.89446 31871 ft 448 kts 295°
2026-05-06 10:01 51.19156 3.80506 31847 ft 448 kts 295°
2026-05-06 10:02 51.20514 3.76028 31631 ft 450 kts 296°
2026-05-06 10:02 51.21875 3.71528 31386 ft 452 kts 295°
2026-05-06 10:02 51.23144 3.66967 31158 ft 448 kts 290°
2026-05-06 10:02 51.24121 3.62253 30926 ft 447 kts 284°
2026-05-06 10:03 51.24777 3.57432 30706 ft 444 kts 281°
2026-05-06 10:03 51.25369 3.52601 30481 ft 443 kts 281°
2026-05-06 10:03 51.25975 3.47786 30251 ft 441 kts 281°
2026-05-06 10:03 51.26596 3.42996 30032 ft 441 kts 281°
2026-05-06 10:04 51.27223 3.38209 29796 ft 440 kts 281°
2026-05-06 10:04 51.27848 3.33425 29528 ft 439 kts 281°
2026-05-06 10:04 51.28467 3.28672 29293 ft 435 kts 281°
2026-05-06 10:04 51.29078 3.23961 29047 ft 432 kts 281°
2026-05-06 10:05 51.29679 3.19315 28945 ft 424 kts 280°
2026-05-06 10:05 51.30273 3.14693 28904 ft 424 kts 280°
2026-05-06 10:05 51.31458 3.05429 28911 ft 427 kts 279°
2026-05-06 10:06 51.32643 2.96113 28910 ft 428 kts 280°
2026-05-06 10:06 51.33821 2.86799 28903 ft 427 kts 279°
2026-05-06 10:07 51.34987 2.77512 28912 ft 425 kts 280°
2026-05-06 10:07 51.35564 2.72890 28794 ft 425 kts 279°
2026-05-06 10:07 51.36136 2.68247 28501 ft 423 kts 279°
2026-05-06 10:08 51.36696 2.63672 28217 ft 414 kts 278°
2026-05-06 10:08 51.37240 2.59201 27932 ft 407 kts 280°
2026-05-06 10:08 51.37776 2.54783 27662 ft 402 kts 278°
2026-05-06 10:08 51.38304 2.50416 27391 ft 398 kts 279°
2026-05-06 10:09 51.38828 2.46079 27124 ft 395 kts 280°
2026-05-06 10:09 51.39347 2.41771 26761 ft 395 kts 279°
2026-05-06 10:09 51.39874 2.37393 26379 ft 395 kts 280°
2026-05-06 10:09 51.40393 2.33076 25998 ft 394 kts 280°
2026-05-06 10:10 51.40906 2.28785 25632 ft 390 kts 280°
2026-05-06 10:10 51.41410 2.24542 25246 ft 385 kts 279°
2026-05-06 10:10 51.41907 2.20346 24866 ft 381 kts 279°
2026-05-06 10:10 51.42397 2.16207 24499 ft 376 kts 280°
2026-05-06 10:11 51.42882 2.12107 24141 ft 373 kts 279°
2026-05-06 10:11 51.43359 2.08049 23798 ft 369 kts 280°
2026-05-06 10:11 51.43833 2.04010 23428 ft 369 kts 280°
2026-05-06 10:11 51.44305 1.99969 23021 ft 369 kts 280°
2026-05-06 10:12 51.44802 1.95945 22613 ft 368 kts 281°
2026-05-06 10:12 51.45318 1.91932 22203 ft 366 kts 281°
2026-05-06 10:12 51.45826 1.87956 21947 ft 361 kts 280°
2026-05-06 10:12 51.46310 1.83991 21958 ft 363 kts 279°
2026-05-06 10:13 51.46769 1.79983 21804 ft 366 kts 279°
2026-05-06 10:13 51.47220 1.75983 21520 ft 363 kts 279°
2026-05-06 10:13 51.47671 1.72015 21195 ft 361 kts 280°
2026-05-06 10:13 51.48120 1.68071 20805 ft 358 kts 279°
2026-05-06 10:14 51.48563 1.64163 20422 ft 352 kts 279°
2026-05-06 10:14 51.48663 1.60298 20016 ft 346 kts 263°
2026-05-06 10:14 51.48102 1.56577 19662 ft 343 kts 250°
2026-05-06 10:14 51.47049 1.53163 19309 ft 342 kts 239°
2026-05-06 10:15 51.45776 1.49984 18956 ft 339 kts 238°
2026-05-06 10:15 51.44481 1.46839 18582 ft 337 kts 238°
2026-05-06 10:15 51.43193 1.43725 18127 ft 336 kts 238°
2026-05-06 10:15 51.41901 1.40588 17606 ft 337 kts 238°
2026-05-06 10:16 51.40616 1.37454 17067 ft 337 kts 238°
2026-05-06 10:16 51.39332 1.34316 16550 ft 337 kts 238°
2026-05-06 10:16 51.38051 1.31175 16039 ft 337 kts 238°
2026-05-06 10:16 51.37201 1.29091 15716 ft 337 kts 238°
2026-05-06 10:17 51.35914 1.25932 15100 ft 340 kts 238°
2026-05-06 10:17 51.34619 1.22753 14491 ft 343 kts 238°
2026-05-06 10:17 51.33313 1.19550 13895 ft 345 kts 238°
2026-05-06 10:17 51.32000 1.16332 13244 ft 346 kts 237°
2026-05-06 10:18 51.30689 1.13125 12712 ft 344 kts 238°
2026-05-06 10:18 51.29387 1.09944 12257 ft 340 kts 238°
2026-05-06 10:18 51.28123 1.06862 12029 ft 320 kts 238°
2026-05-06 10:18 51.26927 1.03949 11985 ft 308 kts 238°
2026-05-06 10:19 51.25758 1.01101 11967 ft 304 kts 238°
2026-05-06 10:19 51.24590 0.98253 11766 ft 308 kts 239°
2026-05-06 10:19 51.23402 0.95363 11507 ft 307 kts 238°
2026-05-06 10:19 51.22242 0.92547 11280 ft 307 kts 239°
2026-05-06 10:20 51.21057 0.89669 11033 ft 306 kts 238°
2026-05-06 10:20 51.19907 0.86881 10793 ft 304 kts 238°
2026-05-06 10:20 51.18730 0.84029 10545 ft 303 kts 239°
2026-05-06 10:20 51.17585 0.81264 10311 ft 303 kts 239°
2026-05-06 10:21 51.16426 0.78467 10127 ft 301 kts 239°
2026-05-06 10:21 51.15283 0.75709 10078 ft 298 kts 239°
2026-05-06 10:21 51.14143 0.72959 10029 ft 303 kts 239°
2026-05-06 10:21 51.12969 0.70129 9797 ft 306 kts 239°
2026-05-06 10:22 51.11800 0.67314 9532 ft 305 kts 239°
2026-05-06 10:22 51.10635 0.64518 9267 ft 301 kts 239°
2026-05-06 10:22 51.09486 0.61762 9002 ft 297 kts 239°
2026-05-06 10:22 51.08361 0.59067 8722 ft 286 kts 239°
2026-05-06 10:23 51.07258 0.56426 8472 ft 288 kts 240°
2026-05-06 10:23 51.06367 0.53655 8191 ft 279 kts 258°
2026-05-06 10:23 51.06051 0.50634 7972 ft 277 kts 266°
2026-05-06 10:23 51.05813 0.47585 7717 ft 278 kts 266°
2026-05-06 10:24 51.05567 0.44518 7446 ft 273 kts 266°
2026-05-06 10:24 51.05329 0.41584 7208 ft 270 kts 266°
2026-05-06 10:24 51.05088 0.38667 7120 ft 263 kts 266°
2026-05-06 10:24 51.04846 0.35788 7071 ft 264 kts 266°
2026-05-06 10:25 51.04603 0.32882 7058 ft 267 kts 266°
2026-05-06 10:25 51.04359 0.29944 7059 ft 269 kts 266°
2026-05-06 10:25 51.04115 0.27004 7047 ft 268 kts 266°
2026-05-06 10:25 51.03870 0.24080 7033 ft 267 kts 266°
2026-05-06 10:26 51.03625 0.21167 7041 ft 266 kts 266°
2026-05-06 10:26 51.03381 0.18261 7028 ft 264 kts 266°
2026-05-06 10:26 51.03138 0.15402 7018 ft 258 kts 266°
2026-05-06 10:26 51.02894 0.12562 7015 ft 257 kts 266°
2026-05-06 10:27 51.02653 0.09746 7017 ft 258 kts 266°
2026-05-06 10:27 51.02412 0.06946 7004 ft 252 kts 266°
2026-05-06 10:27 51.02174 0.04221 6996 ft 247 kts 266°
2026-05-06 10:27 51.01938 0.01537 6993 ft 245 kts 266°
2026-05-06 10:28 51.01702 -0.01136 6982 ft 240 kts 265°
2026-05-06 10:28 51.01478 -0.03694 6974 ft 228 kts 266°
2026-05-06 10:28 51.01260 -0.06135 6971 ft 220 kts 265°
2026-05-06 10:28 51.01046 -0.08530 6980 ft 220 kts 266°
2026-05-06 10:29 51.00833 -0.10952 6994 ft 224 kts 266°
2026-05-06 10:29 51.00615 -0.13414 6995 ft 227 kts 266°
2026-05-06 10:29 51.00398 -0.15897 6994 ft 228 kts 266°
2026-05-06 10:29 51.00181 -0.18387 6991 ft 228 kts 266°
2026-05-06 10:30 50.99964 -0.20873 6955 ft 226 kts 266°
2026-05-06 10:30 50.99802 -0.23353 6702 ft 225 kts 275°
2026-05-06 10:30 50.99921 -0.25767 6431 ft 216 kts 280°
2026-05-06 10:30 51.00100 -0.28126 5974 ft 216 kts 281°
2026-05-06 10:31 51.00278 -0.30461 5456 ft 217 kts 281°
2026-05-06 10:31 51.00454 -0.32855 4921 ft 219 kts 281°
2026-05-06 10:31 51.00614 -0.35257 4395 ft 219 kts 281°
2026-05-06 10:31 51.00774 -0.37665 3893 ft 220 kts 281°
2026-05-06 10:32 51.00936 -0.40083 3373 ft 221 kts 281°
2026-05-06 10:32 51.01101 -0.42491 3015 ft 217 kts 281°
2026-05-06 10:32 51.01488 -0.44769 2972 ft 212 kts 306°
2026-05-06 10:32 51.02545 -0.46286 2996 ft 205 kts 337°
2026-05-06 10:33 51.03859 -0.47127 2999 ft 205 kts 341°
2026-05-06 10:33 51.05187 -0.47961 2993 ft 205 kts 340°
2026-05-06 10:33 51.06490 -0.48787 2984 ft 199 kts 341°
2026-05-06 10:33 51.07770 -0.49530 2976 ft 191 kts 352°
2026-05-06 10:34 51.09065 -0.49249 3008 ft 193 kts 28°
2026-05-06 10:34 51.09966 -0.47712 2995 ft 190 kts 58°
2026-05-06 10:34 51.10565 -0.45879 3026 ft 186 kts 59°
2026-05-06 10:34 51.11079 -0.43997 2999 ft 184 kts 66°
2026-05-06 10:35 51.11496 -0.42106 2986 ft 179 kts 68°
2026-05-06 10:35 51.11849 -0.40206 2763 ft 179 kts 71°
2026-05-06 10:35 51.12130 -0.38297 2543 ft 176 kts 73°
2026-05-06 10:35 51.12388 -0.36440 2306 ft 165 kts 72°
2026-05-06 10:36 51.12629 -0.34723 2067 ft 151 kts 72°
2026-05-06 10:36 51.12847 -0.33161 1850 ft 138 kts 73°
2026-05-06 10:36 51.13051 -0.31699 1701 ft 134 kts 71°
2026-05-06 10:36 51.13251 -0.30273 1504 ft 130 kts 71°
2026-05-06 10:37 51.13443 -0.28871 1323 ft 128 kts 71°
2026-05-06 10:37 51.13641 -0.27466 1135 ft 129 kts 70°
2026-05-06 10:37 51.13834 -0.26095 959 ft 127 kts 73°
2026-05-06 10:37 51.14019 -0.24712 777 ft 129 kts 73°
2026-05-06 10:38 51.14213 -0.23321 606 ft 130 kts 75°
2026-05-06 10:38 51.14407 -0.21939 427 ft 131 kts 75°
2026-05-06 10:38 51.14602 -0.20547 258 ft 129 kts 71°
2026-05-06 10:38 51.14794 -0.19232 218 ft 109 kts 76°
2026-05-06 10:39 51.14921 -0.18294 212 ft 55 kts 78°
2026-05-06 10:39 51.15014 -0.17892 223 ft 30 kts 53°
2026-05-06 10:39 51.15107 -0.17764 214 ft 0 kts
2026-05-06 10:41 51.15172 -0.17717 218 ft 18 kts 52°
2026-05-06 10:41 51.15211 -0.17501 210 ft 18 kts 78°
2026-05-06 10:41 51.15214 -0.17478 214 ft 0 kts 78°
2026-05-06 10:42 51.15215 -0.17467 213 ft 8 kts 78°
2026-05-06 10:42 51.15289 -0.17355 214 ft 19 kts 352°
2026-05-06 10:43 51.15376 -0.17299 219 ft 14 kts 37°